{"data":{"norad_id":64538,"intl_designator":"2025-135L","name":"IOD-2","alt_names":[],"object_type":"PAYLOAD","status":"ACTIVE","operator":null,"country":"SPN","launch_date":"2025-06-23","launch_site_code":"AFWTR","launch_vehicle":null,"mission":null,"orbit_class":"UNKNOWN","rcs_meters":null,"size_class":null,"mass_kg":null,"dimensions":null,"purposes":[],"wikipedia_slug":null,"has_3d_model":false,"image_url":null,"decayed_at":null,"tle_current":{"epoch":"2026-05-24T21:10:20.016768Z","epoch_age_seconds":85561,"freshness":"FRESH","line1":"1 64538U 25135L   26144.88217612  .00003475  00000+0  16377-3 0  9999","line2":"2 64538  97.4675 259.7096 0003168 250.6744 109.4148 15.20160559 51287","mean_motion":15.20160559,"eccentricity":0.0003168,"inclination_deg":97.4675,"raan_deg":259.7096,"arg_perigee_deg":250.6744,"mean_anomaly_deg":109.4148,"bstar":0.00016377,"rev_number":5128,"period_min":94.726836022326,"perigee_km":503.17519193487,"apogee_km":507.5365730252,"semimajor_km":6883.49288248,"source":"CELESTRAK","updated_at":"2026-05-25T13:38:04.582510Z"}}}